[[{"header":{"parameterUnit":"m.s-1","parameterCategory":2,"la1":30.2991,"la2":30.254,"lo1":-89.0895,"lo2":-89.0444,"dy":0.0017,"dx":0.0017,"nx":28,"ny":28,"refTime":"2024-12-31T03:00:00:Z","depth":"0","parameterNumber":2,"parameterNumberName":"U-component_of_CURRENTS"},"data":[0,0,0,0,0,0,0,0,0,0,0,0,0,0,0,0,0,0,0,0,0,0,0,0,0,0,0,0,0,0,0,0,0,0,0,0,0,0,0,0,0,0,0,0,0,0,0,0,0,0,0,0,0,0,0,0,0,0,-0.2876,-0.2876,0,-0.2914,-0.2915,-0.2916,-0.2931,-0.2931,-0.293,-0.293,-0.2908,-0.2908,-0.2908,0,0,0,0,0,0,0,0,0,0,0,0,0,-0.2773,-0.2776,-0.2876,-0.2876,-0.2876,-0.2914,-0.2915,-0.2916,-0.2931,-0.2931,-0.293,-0.2929,-0.2908,-0.2908,-0.2908,0,0,0,0,0,0,0,0,0,0,0,0,0,-0.282,-0.2776,-0.2876,-0.2884,-0.2885,-0.2914,-0.2915,-0.2916,-0.2931,-0.2931,-0.293,-0.2929,-0.2908,-0.2908,-0.2908,-0.2925,0,0,-0.2908,-0.2908,0,0,0,0,0,0,0,0,-0.2818,-0.2825,-0.2883,-0.2884,-0.2885,-0.2913,-0.2871,-0.2915,-0.2932,-0.2919,-0.293,-0.2929,-0.2902,-0.2902,-0.2919,-0.2924,-0.2923,-0.2908,-0.2908,-0.2908,-0.2908,0,0,0,0,0,0,0,-0.2814,-0.2823,-0.2896,-0.2883,-0.2884,-0.2871,-0.2878,-0.288,-0.2918,-0.292,-0.292,-0.2917,-0.2902,-0.292,-0.2919,-0.2923,-0.2908,-0.2908,-0.2908,-0.2908,-0.2954,-0.2955,0,0,0,0,0,0,-0.2803,-0.282,-0.2895,-0.2897,-0.2842,-0.2873,-0.2881,-0.2909,-0.2919,-0.2919,-0.2917,-0.2917,-0.292,-0.2919,-0.2918,-0.2939,-0.2908,-0.2908,-0.2908,-0.2952,-0.2954,-0.2955,0,0,0,0,0,0,-0.2801,-0.2811,-0.2893,-0.2853,-0.2862,-0.2876,-0.2907,-0.291,-0.2923,-0.2916,-0.2916,-0.2926,-0.2919,-0.2918,-0.292,-0.2938,-0.2908,-0.2908,-0.2951,-0.2953,-0.2954,-0.298,0,0,0,0,0,0,-0.2799,-0.2811,-0.2838,-0.2854,-0.2864,-0.2913,-0.2907,-0.2911,-0.292,-0.292,-0.2923,-0.2921,-0.2919,-0.292,-0.292,-0.2937,-0.2908,-0.2949,-0.2952,-0.2954,-0.2978,-0.2983,-0.2987,0,0,0,0,0,-0.2796,-0.282,-0.284,-0.2848,-0.2898,-0.2913,-0.2919,-0.2927,-0.2921,-0.2935,-0.2933,-0.2921,-0.2935,-0.2921,-0.292,-0.2938,-0.2948,-0.2951,-0.2954,-0.2976,-0.2982,-0.2987,0,0,0,0,0,0,-0.2791,-0.2824,-0.2846,-0.2883,-0.2901,-0.2914,-0.2915,-0.2928,-0.2941,-0.2935,-0.293,-0.2928,-0.2944,-0.2937,-0.2922,-0.2961,-0.2943,-0.2946,-0.296,-0.2965,-0.297,-0.2963,-0.2908,0,0,0,0,0,-0.2805,-0.2831,-0.286,-0.2888,-0.289,-0.2907,-0.2915,-0.2928,-0.2933,-0.2939,-0.2937,-0.2941,-0.2959,-0.2956,-0.2969,-0.2978,-0.2951,-0.2993,-0.2998,-0.3002,-0.2998,-0.2994,-0.2997,-0.2964,-0.2964,-0.2964,0,0,-0.2805,-0.2829,-0.2842,-0.2888,-0.2894,-0.2907,-0.291,-0.292,-0.2939,-0.2932,-0.2944,-0.2957,-0.2968,-0.2989,-0.2995,-0.298,-0.299,-0.3005,-0.3008,-0.3002,-0.2997,-0.3,-0.3002,-0.2966,-0.2966,-0.2966,0,0,-0.2789,-0.284,-0.2841,-0.2865,-0.2883,-0.2904,-0.2906,-0.2924,-0.2939,-0.2958,-0.2967,-0.2987,-0.2994,-0.3017,-0.3026,-0.3062,-0.3022,-0.3069,-0.3075,-0.3072,-0.3074,-0.3075,-0.3009,-0.3005,-0.3062,-0.3062,-0.3062,0,-0.2787,-0.2812,-0.2843,-0.285,-0.2866,-0.2899,-0.2905,-0.2933,-0.2956,-0.2966,-0.2959,-0.2998,-0.3011,-0.3046,-0.3068,-0.3072,-0.3039,-0.3051,-0.3075,-0.3077,-0.3078,-0.301,-0.3005,-0.3064,-0.3064,-0.3063,-0.3063,0,-0.2759,-0.2796,-0.279,-0.2824,-0.2852,-0.2863,-0.2904,-0.293,-0.2947,-0.2972,-0.3004,-0.3027,-0.3045,-0.3067,-0.3078,-0.3107,-0.3068,-0.3086,-0.3056,-0.3082,-0.3009,-0.3003,-0.3066,-0.3065,-0.3065,-0.3065,0,0,-0.2682,-0.2762,-0.2756,-0.2776,-0.2845,-0.285,-0.29,-0.2942,-0.2948,-0.2991,-0.2995,-0.3061,-0.3069,-0.3083,-0.3105,-0.3112,-0.3094,-0.3102,-0.3101,-0.3024,-0.3032,-0.2844,-0.2818,-0.3114,-0.3114,-0.3114,-0.2964,0,-0.2641,-0.2661,-0.2724,-0.2743,-0.2746,-0.2828,-0.2864,-0.2917,-0.295,-0.2963,-0.3015,-0.3027,-0.3077,-0.3075,-0.3101,-0.3107,-0.3085,-0.3129,-0.3028,-0.3024,-0.2845,-0.2809,-0.2696,-0.254,-0.2958,-0.2957,-0.2956,0,-0.2556,-0.2593,-0.2607,-0.2697,-0.2704,-0.273,-0.2783,-0.2829,-0.2891,-0.2915,-0.2958,-0.2986,-0.303,-0.3049,-0.3062,-0.3085,-0.3056,-0.3048,-0.3043,-0.2854,-0.2825,-0.259,-0.2513,-0.2519,-0.2947,-0.2947,-0.2948,0,-0.2409,-0.2499,-0.2512,-0.2539,-0.2642,-0.2661,-0.272,-0.279,-0.2806,-0.2868,-0.2857,-0.2937,-0.2922,-0.296,-0.2957,-0.3009,-0.2918,-0.2986,-0.2776,-0.276,-0.2636,-0.2608,-0.2543,-0.2956,-0.2956,-0.2957,-0.2957,0,-0.2301,-0.2301,-0.2442,-0.2425,-0.2432,-0.2556,-0.255,-0.2619,-0.2691,-0.2675,-0.2805,-0.2773,-0.2898,-0.287,-0.2908,-0.2786,-0.2872,-0.2745,-0.2708,-0.2635,-0.2611,-0.2587,-0.2636,-0.2951,-0.2952,-0.2954,-0.2955,0,-0.2087,-0.219,-0.2191,-0.231,-0.2339,-0.2326,-0.2424,-0.2426,-0.2526,-0.2503,-0.2515,-0.2615,-0.2582,-0.2644,-0.2652,-0.2649,-0.2539,-0.2529,-0.2395,-0.2344,-0.2166,-0.222,-0.2069,-0.201,-0.229,-0.2284,-0.228,0,-0.1972,-0.1955,-0.2049,-0.2047,-0.2085,-0.2117,-0.2134,-0.2286,-0.2298,-0.2377,-0.2339,-0.2331,-0.2284,-0.2215,-0.2222,-0.2182,-0.2263,-0.2034,-0.2126,-0.2095,-0.2133,-0.2188,-0.2157,-0.1967,-0.1961,-0.1955,-0.1951,0,-0.1751,-0.179,-0.1808,-0.181,-0.1821,-0.1843,-0.1896,-0.1886,-0.2044,-0.2042,-0.2025,-0.2004,-0.1936,-0.1857,-0.1795,-0.1785,-0.1978,-0.1909,-0.1949,-0.1905,-0.1894,-0.1838,-0.2099,-0.19,-0.1905,-0.1909,-0.1912,-0.1914,-0.1583,-0.1551,-0.1597,-0.1586,-0.1598,-0.1592,-0.1568,-0.1637,-0.1636,-0.1658,-0.1705,-0.1664,-0.1635,-0.1541,-0.15,-0.1424,-0.1548,-0.1455,-0.1526,-0.1586,-0.1517,-0.1605,-0.1326,-0.1327,-0.1329,-0.133,-0.1331,0,-0.1409,-0.1416,-0.1388,-0.1394,-0.1355,-0.1422,-0.143,-0.1409,-0.137,-0.1396,-0.1376,-0.1355,-0.1247,-0.126,-0.1191,-0.1126,-0.1162,-0.1122,-0.1251,-0.1244,-0.1372,-0.1346,-0.097,-0.0971,-0.0971,-0.0971,-0.0971,-0.0971,-0.1325,-0.1271,-0.128,-0.1187,-0.118,-0.1116,-0.11,-0.1072,-0.1085,-0.1046,-0.107,-0.1121,-0.1156,-0.1216,-0.1118,-0.1047,-0.1091,-0.0996,-0.1068,-0.1259,-0.13,-0.134,-0.1327,-0.0954,-0.0954,-0.0901,-0.0901,-0.0901]},{"header":{"parameterUnit":"m.s-1","parameterCategory":2,"la1":30.2991,"la2":30.254,"lo1":-89.0895,"lo2":-89.0444,"dy":0.0017,"dx":0.0017,"nx":28,"ny":28,"refTime":"2024-12-31T03:00:00:Z","depth":"0","parameterNumber":3,"parameterNumberName":"V-component_of_CURRENTS"},"data":[0,0,0,0,0,0,0,0,0,0,0,0,0,0,0,0,0,0,0,0,0,0,0,0,0,0,0,0,0,0,0,0,0,0,0,0,0,0,0,0,0,0,0,0,0,0,0,0,0,0,0,0,0,0,0,0,0,0,-0.0733,-0.0732,0,-0.0594,-0.0592,-0.0591,-0.0532,-0.0533,-0.0533,-0.0533,-0.0402,-0.0398,-0.0395,0,0,0,0,0,0,0,0,0,0,0,0,0,-0.0823,-0.0823,-0.0733,-0.0731,-0.073,-0.0594,-0.0592,-0.059,-0.0532,-0.0533,-0.0533,-0.0533,-0.0403,-0.0399,-0.0394,0,0,0,0,0,0,0,0,0,0,0,0,0,-0.0746,-0.0822,-0.0734,-0.0683,-0.0677,-0.0594,-0.0592,-0.059,-0.0532,-0.0533,-0.0533,-0.0533,-0.0404,-0.0399,-0.0394,-0.0357,0,0,-0.0377,-0.0375,0,0,0,0,0,0,0,0,-0.075,-0.0743,-0.0692,-0.0686,-0.0679,-0.0579,-0.0575,-0.0512,-0.0532,-0.0589,-0.0533,-0.0533,-0.0461,-0.0451,-0.0426,-0.0351,-0.0345,-0.0377,-0.0374,-0.0371,-0.037,0,0,0,0,0,0,0,-0.0756,-0.0748,-0.068,-0.069,-0.0682,-0.0623,-0.0614,-0.0563,-0.0527,-0.0584,-0.0579,-0.0561,-0.0457,-0.0432,-0.0423,-0.0343,-0.0377,-0.0372,-0.0369,-0.0367,-0.0235,-0.0235,0,0,0,0,0,0,-0.0776,-0.0754,-0.0684,-0.0675,-0.0714,-0.0622,-0.0612,-0.0613,-0.0527,-0.0514,-0.0561,-0.0558,-0.0441,-0.0429,-0.0418,-0.0394,-0.0371,-0.0366,-0.0363,-0.0235,-0.0235,-0.0235,0,0,0,0,0,0,-0.0779,-0.0772,-0.069,-0.0708,-0.0694,-0.0621,-0.0622,-0.061,-0.0587,-0.0509,-0.0496,-0.0552,-0.044,-0.0426,-0.0374,-0.0388,-0.0364,-0.0359,-0.0236,-0.0235,-0.0235,-0.0331,0,0,0,0,0,0,-0.0783,-0.0775,-0.0793,-0.0711,-0.0693,-0.0664,-0.0621,-0.0607,-0.0574,-0.057,-0.0497,-0.0484,-0.0439,-0.0382,-0.0369,-0.038,-0.0355,-0.0236,-0.0235,-0.0235,-0.0328,-0.0334,-0.0338,0,0,0,0,0,-0.0787,-0.0791,-0.0795,-0.0786,-0.0718,-0.0665,-0.0652,-0.06,-0.0574,-0.0578,-0.0514,-0.0487,-0.037,-0.0377,-0.0361,-0.0372,-0.0236,-0.0236,-0.0235,-0.0325,-0.0332,-0.0338,0,0,0,0,0,0,-0.0826,-0.0783,-0.0786,-0.0777,-0.0743,-0.0655,-0.0634,-0.0606,-0.0556,-0.0545,-0.0477,-0.0461,-0.0422,-0.0377,-0.0388,-0.033,-0.03,-0.0297,-0.0375,-0.0381,-0.0386,-0.043,-0.035,0,0,0,0,0,-0.0851,-0.0849,-0.0803,-0.0797,-0.0778,-0.0714,-0.0686,-0.0657,-0.0595,-0.0573,-0.0518,-0.0455,-0.0404,-0.0379,-0.0326,-0.0292,-0.0254,-0.0288,-0.0294,-0.0299,-0.0322,-0.0296,-0.0302,-0.0233,-0.0233,-0.0233,0,0,-0.0862,-0.0837,-0.0837,-0.0807,-0.0764,-0.0744,-0.0697,-0.0657,-0.0645,-0.0565,-0.0524,-0.047,-0.0397,-0.0361,-0.0341,-0.0329,-0.0285,-0.0298,-0.0303,-0.0324,-0.0296,-0.0303,-0.0309,-0.0232,-0.0232,-0.0233,0,0,-0.0862,-0.0863,-0.086,-0.0842,-0.0798,-0.0762,-0.0759,-0.0689,-0.0668,-0.0625,-0.0565,-0.0527,-0.0437,-0.0402,-0.0369,-0.037,-0.0314,-0.0346,-0.0413,-0.0387,-0.0393,-0.0399,-0.0314,-0.0311,-0.0352,-0.0352,-0.0353,0,-0.0885,-0.0882,-0.085,-0.0839,-0.0827,-0.0777,-0.0774,-0.0739,-0.0667,-0.0658,-0.0627,-0.0518,-0.0462,-0.0429,-0.0432,-0.0387,-0.0343,-0.0399,-0.0398,-0.0403,-0.0407,-0.0319,-0.0315,-0.0357,-0.0356,-0.0356,-0.0356,0,-0.0878,-0.0889,-0.0874,-0.0862,-0.0848,-0.0833,-0.0794,-0.0781,-0.0745,-0.0715,-0.0679,-0.0601,-0.0546,-0.052,-0.0475,-0.0475,-0.042,-0.0409,-0.0393,-0.042,-0.0324,-0.0318,-0.0364,-0.0362,-0.0361,-0.0359,0,0,-0.0896,-0.0882,-0.0881,-0.0896,-0.0868,-0.0852,-0.0844,-0.083,-0.0823,-0.0776,-0.0766,-0.0696,-0.0667,-0.0629,-0.0571,-0.0555,-0.0526,-0.0506,-0.0502,-0.0441,-0.0426,-0.0343,-0.0327,-0.0521,-0.0522,-0.0522,-0.0332,0,-0.0909,-0.0913,-0.0903,-0.0918,-0.0918,-0.0902,-0.0902,-0.0887,-0.0853,-0.0829,-0.0783,-0.0738,-0.0703,-0.0672,-0.0659,-0.0549,-0.0522,-0.0576,-0.0393,-0.0386,-0.0327,-0.0323,-0.0295,-0.0122,-0.0326,-0.0325,-0.0324,0,-0.0911,-0.0917,-0.0934,-0.0966,-0.0965,-0.0969,-0.0973,-0.0967,-0.0935,-0.0913,-0.0885,-0.0826,-0.078,-0.075,-0.0622,-0.0656,-0.0565,-0.0488,-0.0479,-0.0376,-0.0295,-0.0133,-0.0102,0.0017,-0.0315,-0.0315,-0.0316,0,-0.0922,-0.0947,-0.0969,-0.0974,-0.0986,-0.1002,-0.1012,-0.0992,-0.0984,-0.0956,-0.093,-0.0881,-0.0815,-0.074,-0.0575,-0.0599,-0.0418,-0.042,-0.0257,-0.0246,-0.0174,-0.0158,-0.0031,-0.0359,-0.036,-0.036,-0.0361,0,-0.0933,-0.095,-0.098,-0.0981,-0.1019,-0.1028,-0.1044,-0.1045,-0.1031,-0.1008,-0.0972,-0.0918,-0.0816,-0.0689,-0.0581,-0.0375,-0.0412,-0.0267,-0.0208,-0.0198,-0.0186,-0.0041,-0.0,-0.0353,-0.0355,-0.0356,-0.0357,0,-0.0913,-0.0935,-0.096,-0.0997,-0.1012,-0.1032,-0.1057,-0.1062,-0.1054,-0.1015,-0.1004,-0.0919,-0.0753,-0.0613,-0.0434,-0.0339,-0.0083,-0.0101,-0.0064,-0.0006,0.0228,0.0261,0.0464,0.0542,0.01,0.0103,0.0105,0,-0.0895,-0.0905,-0.0954,-0.0977,-0.099,-0.1023,-0.1041,-0.1061,-0.1056,-0.0993,-0.0969,-0.0819,-0.0692,-0.0389,-0.0207,0.0017,0.0079,0.0179,0.011,0.0248,0.033,0.0352,0.0403,0.0203,0.0206,0.0208,0.021,0,-0.0864,-0.0883,-0.0911,-0.0955,-0.0985,-0.1016,-0.1043,-0.1043,-0.1041,-0.0994,-0.0896,-0.0793,-0.0507,-0.0253,0.0028,0.0153,0.0274,0.0238,0.0353,0.0392,0.0452,0.0554,0.0114,0.0232,0.023,0.0229,0.0227,0.0226,-0.0846,-0.0868,-0.0913,-0.0953,-0.0988,-0.1014,-0.1024,-0.1027,-0.1003,-0.093,-0.0833,-0.0659,-0.0314,0.0075,0.023,0.0538,0.0488,0.0607,0.0638,0.065,0.0704,0.0341,0.0531,0.053,0.053,0.0529,0.0529,0,-0.0839,-0.0876,-0.0913,-0.097,-0.0999,-0.1014,-0.103,-0.1016,-0.0967,-0.0865,-0.0749,-0.0379,-0.0013,0.0301,0.073,0.0908,0.0923,0.0992,0.1005,0.1037,0.07,0.068,0.0944,0.0944,0.0944,0.0943,0.0943,0.0943,-0.0845,-0.0887,-0.0912,-0.097,-0.1002,-0.1022,-0.1023,-0.0971,-0.09,-0.0698,-0.0506,-0.0368,0.0088,0.0787,0.1199,0.1243,0.137,0.1376,0.1449,0.1183,0.1147,0.1114,0.1104,0.1453,0.1453,0.1765,0.1768,0.1771]}],[{"header":{"parameterUnit":"m.s-1","parameterCategory":2,"la1":30.2991,"la2":30.254,"lo1":-89.0895,"lo2":-89.0444,"dy":0.0017,"dx":0.0017,"nx":28,"ny":28,"refTime":"2024-12-31T03:00:00:Z","depth":"2","parameterNumber":2,"parameterNumberName":"U-component_of_CURRENTS"},"data":[0,0,0,0,0,0,0,0,0,0,0,0,0,0,0,0,0,0,0,0,0,0,0,0,0,0,0,0,0,0,0,0,0,0,0,0,0,0,0,0,0,0,0,0,0,0,0,0,0,0,0,0,0,0,0,0,0,0,-0.2057,-0.2059,0,-0.2159,-0.2159,-0.2159,-0.2208,-0.2209,-0.221,-0.2211,-0.219,-0.2189,-0.2188,0,0,0,0,0,0,0,0,0,0,0,0,0,-0.2023,-0.2022,-0.2057,-0.206,-0.2062,-0.2159,-0.2159,-0.2159,-0.2208,-0.2209,-0.221,-0.2211,-0.2191,-0.2189,-0.2187,0,0,0,0,0,0,0,0,0,0,0,0,0,-0.2061,-0.2022,-0.2057,-0.2106,-0.2113,-0.2159,-0.2159,-0.2159,-0.2207,-0.2209,-0.221,-0.2212,-0.2192,-0.2189,-0.2187,-0.2142,0,0,-0.218,-0.2179,0,0,0,0,0,0,0,0,-0.2059,-0.2061,-0.2097,-0.2103,-0.2111,-0.2183,-0.2141,-0.2152,-0.2207,-0.2159,-0.2211,-0.2213,-0.2183,-0.2182,-0.2182,-0.2141,-0.214,-0.218,-0.2179,-0.2178,-0.2177,0,0,0,0,0,0,0,-0.2056,-0.2058,-0.2085,-0.2099,-0.2108,-0.2165,-0.217,-0.2143,-0.2149,-0.2163,-0.217,-0.22,-0.2185,-0.2184,-0.2182,-0.214,-0.218,-0.2178,-0.2177,-0.2176,-0.2187,-0.2189,0,0,0,0,0,0,-0.2059,-0.2054,-0.2083,-0.209,-0.2101,-0.2165,-0.217,-0.2148,-0.2153,-0.2159,-0.2198,-0.2202,-0.2187,-0.2185,-0.2181,-0.2203,-0.2178,-0.2176,-0.2174,-0.2186,-0.2188,-0.219,0,0,0,0,0,0,-0.2057,-0.2058,-0.2079,-0.2087,-0.2096,-0.2164,-0.214,-0.215,-0.2166,-0.2183,-0.2185,-0.2208,-0.2188,-0.2184,-0.2171,-0.2199,-0.2175,-0.2172,-0.2184,-0.2186,-0.2189,-0.2197,0,0,0,0,0,0,-0.2054,-0.2055,-0.206,-0.2085,-0.2096,-0.2071,-0.214,-0.2151,-0.2187,-0.2192,-0.2191,-0.2191,-0.2189,-0.2174,-0.2168,-0.2196,-0.2171,-0.2182,-0.2185,-0.2188,-0.2194,-0.2199,-0.2203,0,0,0,0,0,-0.2051,-0.2044,-0.2057,-0.2064,-0.209,-0.207,-0.2076,-0.2127,-0.2186,-0.2154,-0.2192,-0.2191,-0.2192,-0.2172,-0.2165,-0.2193,-0.218,-0.2184,-0.2188,-0.2192,-0.2198,-0.2203,0,0,0,0,0,0,-0.2038,-0.2051,-0.2065,-0.2064,-0.2054,-0.2082,-0.2109,-0.2129,-0.2136,-0.2172,-0.218,-0.2179,-0.2193,-0.2186,-0.2164,-0.2213,-0.2199,-0.2201,-0.2205,-0.221,-0.2214,-0.223,-0.2169,0,0,0,0,0,-0.2035,-0.2023,-0.2033,-0.2026,-0.204,-0.2074,-0.2091,-0.2107,-0.2123,-0.2131,-0.2136,-0.217,-0.22,-0.2197,-0.2205,-0.2197,-0.2183,-0.2225,-0.223,-0.2233,-0.2245,-0.2232,-0.2235,-0.2202,-0.2202,-0.2202,0,0,-0.2043,-0.2041,-0.2045,-0.2023,-0.2049,-0.2066,-0.2083,-0.21,-0.212,-0.2125,-0.2157,-0.2172,-0.2203,-0.222,-0.2226,-0.2214,-0.2234,-0.2238,-0.224,-0.2251,-0.2236,-0.2238,-0.2241,-0.2205,-0.2204,-0.2204,0,0,-0.2038,-0.2037,-0.2036,-0.2031,-0.2053,-0.2069,-0.2071,-0.2088,-0.2102,-0.2112,-0.2161,-0.2193,-0.2198,-0.2238,-0.2264,-0.2294,-0.2262,-0.2301,-0.2322,-0.2308,-0.231,-0.2311,-0.2284,-0.2283,-0.2298,-0.2298,-0.2298,0,-0.2053,-0.2038,-0.203,-0.2032,-0.2057,-0.2074,-0.2089,-0.2101,-0.2106,-0.2119,-0.2126,-0.2204,-0.2226,-0.2284,-0.2315,-0.2306,-0.2274,-0.2293,-0.231,-0.2312,-0.2313,-0.2284,-0.2283,-0.2298,-0.2298,-0.2298,-0.2298,0,-0.205,-0.2055,-0.2059,-0.207,-0.2076,-0.2082,-0.2109,-0.211,-0.2148,-0.2167,-0.2205,-0.2231,-0.2277,-0.2301,-0.2323,-0.2359,-0.2324,-0.2316,-0.2287,-0.2316,-0.2285,-0.2283,-0.23,-0.2299,-0.2299,-0.2299,0,0,-0.2005,-0.2054,-0.2048,-0.2061,-0.2098,-0.2083,-0.2137,-0.2155,-0.2193,-0.2203,-0.2239,-0.2316,-0.2323,-0.2356,-0.2374,-0.2376,-0.2371,-0.2349,-0.2348,-0.2305,-0.231,-0.2176,-0.216,-0.234,-0.234,-0.234,-0.2278,0,-0.2,-0.2015,-0.2044,-0.2064,-0.208,-0.2119,-0.2154,-0.2178,-0.2211,-0.2236,-0.2282,-0.2325,-0.2345,-0.2366,-0.2374,-0.2382,-0.2368,-0.2388,-0.2305,-0.2303,-0.2165,-0.2156,-0.2019,-0.1942,-0.2276,-0.2276,-0.2276,0,-0.196,-0.1977,-0.2009,-0.205,-0.2065,-0.2086,-0.2133,-0.2161,-0.2223,-0.2255,-0.2303,-0.2331,-0.2378,-0.2374,-0.2377,-0.2374,-0.2349,-0.234,-0.2336,-0.2209,-0.2165,-0.1973,-0.1926,-0.2273,-0.2273,-0.2273,-0.2273,0,-0.1876,-0.1927,-0.1949,-0.1965,-0.2037,-0.2054,-0.2091,-0.2159,-0.2177,-0.2257,-0.2272,-0.2335,-0.2337,-0.2342,-0.2329,-0.2349,-0.2288,-0.2313,-0.2164,-0.2153,-0.2025,-0.2002,-0.2293,-0.2293,-0.2293,-0.2293,-0.2293,0,-0.182,-0.1822,-0.191,-0.1912,-0.1927,-0.1997,-0.2021,-0.2076,-0.2148,-0.2159,-0.2257,-0.2252,-0.232,-0.2293,-0.2306,-0.2204,-0.2261,-0.2161,-0.2125,-0.2022,-0.2001,-0.2287,-0.2287,-0.2291,-0.2291,-0.2292,-0.2292,0,-0.1703,-0.1773,-0.1782,-0.1864,-0.1882,-0.1881,-0.1952,-0.1968,-0.2058,-0.2071,-0.209,-0.2164,-0.2134,-0.2159,-0.2153,-0.2129,-0.209,-0.2032,-0.1896,-0.1845,-0.198,-0.1982,-0.1892,-0.1887,-0.1882,-0.1878,-0.1875,0,-0.1648,-0.1646,-0.1713,-0.1712,-0.1744,-0.1769,-0.1788,-0.1899,-0.1919,-0.199,-0.1972,-0.1973,-0.1937,-0.1873,-0.185,-0.1811,-0.1912,-0.1654,-0.1687,-0.1963,-0.1938,-0.1947,-0.1955,-0.1525,-0.152,-0.1515,-0.1511,0,-0.1529,-0.1557,-0.1572,-0.1582,-0.1594,-0.161,-0.1646,-0.165,-0.1762,-0.1773,-0.1762,-0.1746,-0.1685,-0.1583,-0.1525,-0.1498,-0.1665,-0.1552,-0.1861,-0.1637,-0.1609,-0.1587,-0.1609,-0.1469,-0.1473,-0.1476,-0.1479,-0.148,-0.1424,-0.1406,-0.1434,-0.1432,-0.1446,-0.1442,-0.142,-0.1462,-0.1464,-0.1471,-0.152,-0.1464,-0.1464,-0.1307,-0.1235,-0.1203,-0.1333,-0.1321,-0.134,-0.1363,-0.1321,-0.1285,-0.1076,-0.1078,-0.108,-0.1081,-0.1082,0,-0.1291,-0.1294,-0.1281,-0.1282,-0.1256,-0.1312,-0.1315,-0.1283,-0.124,-0.1259,-0.1234,-0.1113,-0.1026,-0.1043,-0.0924,-0.0897,-0.0939,-0.0868,-0.0945,-0.0985,-0.1021,-0.0967,-0.0626,-0.0624,-0.0623,-0.0622,0,0,-0.1219,-0.1174,-0.1181,-0.1105,-0.1102,-0.1043,-0.1025,-0.0991,-0.0986,-0.0922,-0.0905,-0.0971,-0.1005,-0.0824,-0.077,-0.0682,-0.0832,-0.0642,-0.1005,-0.1134,-0.117,-0.1271,-0.1229,0,0,0,0,0]},{"header":{"parameterUnit":"m.s-1","parameterCategory":2,"la1":30.2991,"la2":30.254,"lo1":-89.0895,"lo2":-89.0444,"dy":0.0017,"dx":0.0017,"nx":28,"ny":28,"refTime":"2024-12-31T03:00:00:Z","depth":"2","parameterNumber":3,"parameterNumberName":"V-component_of_CURRENTS"},"data":[0,0,0,0,0,0,0,0,0,0,0,0,0,0,0,0,0,0,0,0,0,0,0,0,0,0,0,0,0,0,0,0,0,0,0,0,0,0,0,0,0,0,0,0,0,0,0,0,0,0,0,0,0,0,0,0,0,0,-0.0019,-0.002,0,-0.0007,-0.0006,-0.0004,0.0029,0.0028,0.0027,0.0027,0.0141,0.0144,0.0148,0,0,0,0,0,0,0,0,0,0,0,0,0,-0.0089,-0.0087,-0.0019,-0.002,-0.0021,-0.0007,-0.0005,-0.0004,0.0029,0.0028,0.0027,0.0026,0.014,0.0144,0.0148,0,0,0,0,0,0,0,0,0,0,0,0,0,-0.0052,-0.0086,-0.0019,-0.0014,-0.0015,-0.0007,-0.0005,-0.0003,0.0029,0.0028,0.0027,0.0026,0.0138,0.0144,0.0149,0.0201,0,0,0.0166,0.0168,0,0,0,0,0,0,0,0,-0.0054,-0.0048,-0.0014,-0.0015,-0.0015,-0.0004,0.001,0.0065,0.0029,0.0028,0.0027,0.0026,0.0093,0.0102,0.0126,0.0207,0.0212,0.0166,0.0169,0.0172,0.0173,0,0,0,0,0,0,0,-0.0057,-0.0049,0.0001,-0.0015,-0.0016,-0.004,-0.0033,0.0022,0.0079,0.0028,0.0027,0.0005,0.0095,0.012,0.0129,0.0213,0.0166,0.0171,0.0174,0.0176,0.0307,0.0308,0,0,0,0,0,0,-0.0082,-0.005,-0.0,-0.0001,-0.0054,-0.0038,-0.003,0.0005,0.0076,0.0081,0.0006,0.0006,0.0112,0.0122,0.0133,0.0153,0.0172,0.0177,0.018,0.0307,0.0307,0.0308,0,0,0,0,0,0,-0.0082,-0.0075,-0.0001,-0.0041,-0.0035,-0.0037,0.0003,0.0005,0.0021,0.0055,0.0065,0.0015,0.0111,0.0125,0.0169,0.0159,0.0179,0.0184,0.0307,0.0307,0.0308,0.0222,0,0,0,0,0,0,-0.0083,-0.0073,-0.0063,-0.004,-0.0034,0.0012,0.0002,0.0006,0.0003,0.0004,0.0067,0.0077,0.0112,0.016,0.0174,0.0167,0.0188,0.0307,0.0307,0.0307,0.0225,0.0219,0.0215,0,0,0,0,0,-0.0084,-0.0082,-0.0061,-0.0058,-0.0015,0.0011,0.0016,0.0017,0.0004,0.0027,0.0049,0.0075,0.0172,0.0165,0.0181,0.0175,0.0306,0.0307,0.0307,0.0227,0.022,0.0215,0,0,0,0,0,0,-0.0121,-0.0079,-0.0056,-0.0041,-0.0011,0.0011,-0.0007,0.0014,0.0052,0.0032,0.0085,0.0098,0.0131,0.0172,0.0162,0.0215,0.0242,0.0245,0.0175,0.017,0.0165,0.0143,0.0193,0,0,0,0,0,-0.012,-0.0092,-0.0057,-0.0043,-0.0043,-0.0017,-0.0016,-0.0004,0.0022,0.0036,0.0083,0.0119,0.015,0.0172,0.0217,0.0253,0.0288,0.026,0.0255,0.025,0.0245,0.0302,0.0301,0.0309,0.0309,0.0309,0,0,-0.0142,-0.0112,-0.0103,-0.0049,-0.0041,-0.004,-0.0015,-0.0021,-0.0014,0.0043,0.0067,0.011,0.0157,0.0187,0.0206,0.0217,0.0262,0.0251,0.0246,0.0243,0.0302,0.0301,0.0301,0.031,0.031,0.0309,0,0,-0.0179,-0.0136,-0.0133,-0.0108,-0.0097,-0.0077,-0.0078,-0.0042,-0.0023,0.0009,0.0039,0.0074,0.0139,0.017,0.0188,0.019,0.0236,0.0206,0.0164,0.0219,0.0218,0.0218,0.0237,0.0239,0.0202,0.0202,0.0202,0,-0.0208,-0.018,-0.0132,-0.0129,-0.0136,-0.0096,-0.0108,-0.008,-0.0026,-0.0009,-0.0,0.0082,0.0123,0.015,0.0142,0.0176,0.0208,0.0175,0.021,0.0211,0.0213,0.0233,0.0236,0.0198,0.0198,0.0199,0.0199,0,-0.0238,-0.0225,-0.0236,-0.0203,-0.019,-0.0198,-0.0165,-0.0135,-0.0118,-0.0085,-0.0042,0.0019,0.0067,0.0085,0.0107,0.0139,0.0156,0.0196,0.0217,0.0206,0.0228,0.0233,0.0192,0.0193,0.0194,0.0195,0,0,-0.0275,-0.0258,-0.0259,-0.0259,-0.0233,-0.0222,-0.022,-0.0188,-0.019,-0.0129,-0.0116,-0.0061,-0.002,0.0005,0.0055,0.0098,0.0122,0.0142,0.0146,0.0146,0.022,0.0246,0.0255,0.0172,0.0173,0.0174,0.0222,0,-0.0313,-0.0329,-0.0301,-0.0322,-0.0338,-0.0296,-0.029,-0.0256,-0.0224,-0.0192,-0.0134,-0.0104,-0.0054,-0.0038,0.0014,0.01,0.0137,0.0104,0.0245,0.0248,0.0261,0.0263,0.0244,0.0287,0.0227,0.0228,0.0229,0,-0.0348,-0.0352,-0.0385,-0.0377,-0.0381,-0.0383,-0.0365,-0.0348,-0.03,-0.0279,-0.0234,-0.0181,-0.0121,-0.0074,0.0057,0.0035,0.0115,0.0182,0.0187,0.0246,0.0285,0.0297,0.03,0.0239,0.0238,0.0237,0.0237,0,-0.04,-0.0405,-0.0432,-0.0432,-0.0423,-0.0425,-0.0413,-0.0377,-0.0368,-0.0329,-0.032,-0.0239,-0.0193,-0.0083,0.0054,0.0056,0.0203,0.0227,0.0322,0.0323,0.0353,0.0356,0.0322,0.0322,0.0322,0.0322,0.0321,0,-0.0447,-0.0468,-0.0461,-0.0479,-0.0508,-0.0476,-0.0493,-0.0471,-0.0445,-0.0436,-0.0364,-0.0333,-0.0187,-0.0081,0.0033,0.0193,0.0192,0.0311,0.0346,0.0321,0.032,0.0323,0.0323,0.0323,0.0323,0.0323,0.0322,0,-0.0503,-0.0502,-0.0534,-0.0535,-0.0539,-0.0557,-0.0552,-0.0555,-0.0525,-0.051,-0.0501,-0.0399,-0.0262,-0.0112,0.0069,0.0172,0.0314,0.0375,0.0316,0.0344,0.0392,0.0387,0.0462,0.0464,0.0465,0.0466,0.0467,0,-0.0533,-0.0558,-0.058,-0.0601,-0.0608,-0.0624,-0.0634,-0.0609,-0.0608,-0.0539,-0.0533,-0.0408,-0.0302,-0.0044,0.0145,0.0337,0.0356,0.0435,0.0443,0.0384,0.041,0.0403,0.0396,0.0434,0.0435,0.0435,0.0436,0,-0.0586,-0.0595,-0.0618,-0.0663,-0.0687,-0.0706,-0.0713,-0.0726,-0.0678,-0.0644,-0.0563,-0.0473,-0.0231,-0.0018,0.023,0.0345,0.0397,0.045,0.0427,0.0405,0.0363,0.0387,0.038,0.044,0.0439,0.0439,0.0439,0.0438,-0.0617,-0.0648,-0.0674,-0.0713,-0.0745,-0.0768,-0.0775,-0.0759,-0.0739,-0.0659,-0.0582,-0.042,-0.0226,0.0126,0.0297,0.0454,0.0456,0.0506,0.0503,0.0499,0.049,0.0455,0.0543,0.0544,0.0544,0.0544,0.0544,0,-0.0639,-0.0671,-0.0714,-0.0758,-0.0791,-0.0795,-0.0806,-0.0783,-0.0737,-0.065,-0.0544,-0.0318,-0.008,0.0121,0.0373,0.0523,0.0507,0.0546,0.0498,0.0494,0.049,0.0479,0.053,0.0531,0.0531,0.0531,0,0,-0.0651,-0.0695,-0.0716,-0.0776,-0.0806,-0.0825,-0.0824,-0.0772,-0.0703,-0.0592,-0.0475,-0.032,-0.0074,0.0101,0.0286,0.0417,0.0414,0.0427,0.0425,0.0342,0.0337,0.0458,0.0436,0,0,0,0,0]}],[{"header":{"parameterUnit":"m.s-1","parameterCategory":2,"la1":30.2991,"la2":30.254,"lo1":-89.0895,"lo2":-89.0444,"dy":0.0017,"dx":0.0017,"nx":28,"ny":28,"refTime":"2024-12-31T03:00:00:Z","depth":"4","parameterNumber":2,"parameterNumberName":"U-component_of_CURRENTS"},"data":[0,0,0,0,0,0,0,0,0,0,0,0,0,0,0,0,0,0,0,0,0,0,0,0,0,0,0,0,0,0,0,0,0,0,0,0,0,0,0,0,0,0,0,0,0,0,0,0,0,0,0,0,0,0,0,0,0,0,-0.1054,-0.1055,0,-0.111,-0.111,-0.111,-0.1101,-0.1101,-0.11,-0.11,-0.1098,-0.1098,-0.1099,0,0,0,0,0,0,0,0,0,0,0,0,0,-0.0979,-0.0979,-0.1054,-0.1055,-0.1056,-0.111,-0.111,-0.1111,-0.1101,-0.1101,-0.11,-0.1099,-0.1098,-0.1098,-0.1099,0,0,0,0,0,0,0,0,0,0,0,0,0,-0.1015,-0.0979,-0.1054,-0.1062,-0.1064,-0.111,-0.111,-0.1111,-0.1101,-0.11,-0.11,-0.1099,-0.1098,-0.1098,-0.1099,-0.1117,0,0,-0.1101,-0.1101,0,0,0,0,0,0,0,0,-0.1013,-0.1017,-0.106,-0.1062,-0.1064,-0.1103,-0.1084,-0.1112,-0.1101,-0.1081,-0.11,-0.1099,-0.1098,-0.1099,-0.1104,-0.1117,-0.1117,-0.1101,-0.1101,-0.1101,-0.1102,0,0,0,0,0,0,0,-0.1011,-0.1015,-0.1071,-0.1061,-0.1064,-0.1077,-0.1081,-0.1089,-0.1088,-0.1083,-0.1084,-0.1099,-0.1098,-0.1103,-0.1104,-0.1117,-0.1101,-0.1101,-0.1102,-0.1102,-0.117,-0.1171,0,0,0,0,0,0,-0.1014,-0.1013,-0.1069,-0.1073,-0.1042,-0.1079,-0.1083,-0.1086,-0.1089,-0.1091,-0.1099,-0.1098,-0.1103,-0.1103,-0.1104,-0.1156,-0.1101,-0.1102,-0.1102,-0.1168,-0.117,-0.1171,0,0,0,0,0,0,-0.1011,-0.1017,-0.1067,-0.1049,-0.1057,-0.1082,-0.1085,-0.1088,-0.111,-0.1103,-0.1102,-0.1122,-0.1102,-0.1103,-0.1129,-0.1155,-0.1102,-0.1103,-0.1166,-0.1169,-0.1171,-0.1242,0,0,0,0,0,0,-0.1009,-0.1016,-0.1025,-0.1049,-0.1058,-0.1097,-0.1087,-0.109,-0.1122,-0.1121,-0.1122,-0.112,-0.1102,-0.1129,-0.113,-0.1155,-0.1103,-0.1165,-0.1167,-0.117,-0.1237,-0.1246,-0.1253,0,0,0,0,0,-0.1006,-0.1031,-0.1024,-0.1032,-0.1067,-0.1099,-0.1104,-0.1116,-0.1124,-0.1133,-0.1144,-0.1121,-0.1146,-0.1131,-0.1132,-0.1157,-0.1163,-0.1167,-0.117,-0.1234,-0.1244,-0.1253,0,0,0,0,0,0,-0.1015,-0.1033,-0.1026,-0.1057,-0.1075,-0.1099,-0.1129,-0.1133,-0.115,-0.1159,-0.1144,-0.1144,-0.1175,-0.1161,-0.1144,-0.1185,-0.1149,-0.1153,-0.1198,-0.1207,-0.1215,-0.1218,-0.1104,0,0,0,0,0,-0.1018,-0.103,-0.105,-0.1074,-0.1094,-0.1113,-0.1133,-0.1138,-0.1159,-0.1166,-0.1173,-0.118,-0.1188,-0.1194,-0.1198,-0.1225,-0.1207,-0.1241,-0.1249,-0.1255,-0.1259,-0.1256,-0.1263,-0.1182,-0.1182,-0.1182,0,0,-0.1028,-0.1042,-0.1049,-0.1075,-0.1099,-0.1132,-0.1123,-0.1164,-0.1188,-0.1165,-0.1213,-0.1213,-0.1203,-0.1231,-0.1243,-0.1223,-0.1272,-0.1259,-0.1265,-0.1265,-0.126,-0.1268,-0.1275,-0.1184,-0.1184,-0.1183,0,0,-0.1061,-0.1073,-0.1095,-0.1115,-0.1152,-0.1164,-0.118,-0.1216,-0.123,-0.1267,-0.126,-0.1281,-0.1297,-0.1296,-0.1296,-0.1353,-0.1316,-0.1352,-0.1392,-0.139,-0.1396,-0.1401,-0.1398,-0.1403,-0.1353,-0.1353,-0.1353,0,-0.1073,-0.1098,-0.1109,-0.1143,-0.1169,-0.1183,-0.1219,-0.1241,-0.1277,-0.1294,-0.1289,-0.133,-0.1327,-0.1356,-0.1374,-0.1371,-0.1359,-0.1356,-0.1399,-0.1404,-0.1408,-0.1403,-0.1407,-0.1357,-0.1356,-0.1356,-0.1356,0,-0.1115,-0.1144,-0.1173,-0.1205,-0.1232,-0.127,-0.13,-0.133,-0.1352,-0.1367,-0.1409,-0.1411,-0.1426,-0.1434,-0.1422,-0.1456,-0.1435,-0.1411,-0.1374,-0.1421,-0.1413,-0.1416,-0.1362,-0.1361,-0.136,-0.1359,0,0,-0.1116,-0.1183,-0.1194,-0.1214,-0.1267,-0.1291,-0.1345,-0.1384,-0.1418,-0.1449,-0.1487,-0.1514,-0.1513,-0.1513,-0.1504,-0.1508,-0.1536,-0.1477,-0.1475,-0.1471,-0.1529,-0.1419,-0.1411,-0.1515,-0.1516,-0.1517,-0.1514,0,-0.1143,-0.1207,-0.1234,-0.1293,-0.1329,-0.1359,-0.1401,-0.1438,-0.1468,-0.1509,-0.1524,-0.1555,-0.1543,-0.1552,-0.1558,-0.1539,-0.1545,-0.1538,-0.1486,-0.1485,-0.1378,-0.1411,-0.1519,-0.1516,-0.1517,-0.1517,-0.1517,0,-0.1168,-0.1206,-0.1272,-0.1326,-0.1347,-0.1384,-0.1444,-0.148,-0.1537,-0.1558,-0.1593,-0.1603,-0.1632,-0.1605,-0.1605,-0.1598,-0.1574,-0.1556,-0.1555,-0.1427,-0.1379,-0.1457,-0.1522,-0.1522,-0.1521,-0.1521,-0.1521,0,-0.1149,-0.1226,-0.1275,-0.1299,-0.137,-0.1405,-0.144,-0.1501,-0.1528,-0.1593,-0.1612,-0.1648,-0.1657,-0.1646,-0.1615,-0.1612,-0.1596,-0.1582,-0.1464,-0.1457,-0.1525,-0.1519,-0.1579,-0.1579,-0.1579,-0.1579,-0.1579,0,-0.1152,-0.1192,-0.1275,-0.1303,-0.1351,-0.1405,-0.1457,-0.1497,-0.1554,-0.1574,-0.1633,-0.1637,-0.1665,-0.1656,-0.163,-0.1548,-0.1606,-0.1475,-0.1447,-0.1557,-0.1554,-0.1527,-0.1521,-0.1579,-0.1579,-0.1579,-0.1579,0,-0.112,-0.1181,-0.1234,-0.1319,-0.1346,-0.1379,-0.1451,-0.1475,-0.1542,-0.157,-0.1589,-0.1635,-0.1614,-0.1622,-0.1599,-0.1544,-0.1493,-0.1449,-0.1572,-0.1551,-0.1358,-0.1356,-0.1326,-0.1322,-0.1319,-0.1316,-0.1314,0,-0.1105,-0.1134,-0.123,-0.125,-0.1291,-0.1349,-0.1377,-0.1458,-0.1472,-0.154,-0.1531,-0.1556,-0.1567,-0.1448,-0.1473,-0.1423,-0.1398,-0.1379,-0.137,-0.1355,-0.1332,-0.1335,-0.1338,-0.1309,-0.1308,-0.1307,-0.1306,0,-0.1056,-0.1103,-0.1139,-0.1189,-0.123,-0.1265,-0.1311,-0.1314,-0.1388,-0.1469,-0.1426,-0.1412,-0.1384,-0.1361,-0.133,-0.1294,-0.14,-0.1344,-0.1351,-0.1342,-0.1333,-0.1314,-0.1321,-0.1294,-0.1296,-0.1297,-0.1298,0,-0.1002,-0.1011,-0.1062,-0.1093,-0.1142,-0.1147,-0.1194,-0.1196,-0.1225,-0.1303,-0.1283,-0.1306,-0.1357,-0.1292,-0.1262,-0.1221,-0.1202,-0.1168,-0.1184,-0.1197,-0.1155,-0.1125,-0.0998,0,0,0,0,0,-0.0933,-0.0928,-0.0951,-0.0979,-0.1028,-0.1056,-0.1122,-0.1168,-0.1252,-0.1182,-0.1227,-0.1192,-0.1149,-0.1167,-0.1093,-0.1206,-0.1211,-0.1118,-0.1183,-0.123,-0.1244,-0.1204,0,0,0,0,0,0,-0.0878,-0.0896,-0.0912,-0.0878,-0.0876,-0.0913,-0.0953,-0.1015,-0.0981,-0.1069,-0.1044,-0.1118,-0.1086,-0.1159,-0.1065,-0.1071,-0.1087,-0.1145,-0.1141,-0.1223,-0.1235,-0.1245,-0.121,0,0,0,0,0]},{"header":{"parameterUnit":"m.s-1","parameterCategory":2,"la1":30.2991,"la2":30.254,"lo1":-89.0895,"lo2":-89.0444,"dy":0.0017,"dx":0.0017,"nx":28,"ny":28,"refTime":"2024-12-31T03:00:00:Z","depth":"4","parameterNumber":3,"parameterNumberName":"V-component_of_CURRENTS"},"data":[0,0,0,0,0,0,0,0,0,0,0,0,0,0,0,0,0,0,0,0,0,0,0,0,0,0,0,0,0,0,0,0,0,0,0,0,0,0,0,0,0,0,0,0,0,0,0,0,0,0,0,0,0,0,0,0,0,0,0.0067,0.0067,0,0.0119,0.012,0.012,0.017,0.017,0.0171,0.0171,0.0239,0.024,0.0242,0,0,0,0,0,0,0,0,0,0,0,0,0,0.0059,0.0059,0.0067,0.0067,0.0067,0.0118,0.012,0.0121,0.017,0.017,0.0171,0.0171,0.0238,0.024,0.0242,0,0,0,0,0,0,0,0,0,0,0,0,0,0.0085,0.0059,0.0067,0.0095,0.0098,0.0118,0.012,0.0121,0.017,0.017,0.0171,0.0171,0.0238,0.024,0.0242,0.0248,0,0,0.0249,0.025,0,0,0,0,0,0,0,0,0.0083,0.0086,0.0091,0.0093,0.0096,0.0135,0.0141,0.0163,0.017,0.0147,0.0171,0.0171,0.0203,0.0208,0.0222,0.0251,0.0254,0.0249,0.0251,0.0252,0.0252,0,0,0,0,0,0,0,0.0081,0.0084,0.0091,0.0091,0.0094,0.0122,0.0126,0.0146,0.0175,0.0149,0.0151,0.0151,0.0205,0.0219,0.0224,0.0255,0.0249,0.0251,0.0253,0.0254,0.0315,0.0315,0,0,0,0,0,0,0.0064,0.0082,0.0089,0.0092,0.0087,0.0121,0.0126,0.0125,0.0174,0.0181,0.0151,0.0153,0.0215,0.0221,0.0226,0.0241,0.0252,0.0254,0.0255,0.0315,0.0315,0.0315,0,0,0,0,0,0,0.0064,0.0065,0.0087,0.0085,0.009,0.012,0.0119,0.0126,0.0141,0.0175,0.0183,0.0159,0.0216,0.0223,0.024,0.0244,0.0255,0.0257,0.0314,0.0315,0.0315,0.0267,0,0,0,0,0,0,0.0064,0.0064,0.0064,0.0084,0.0089,0.0094,0.0119,0.0127,0.0139,0.0143,0.0184,0.0191,0.0217,0.0236,0.0242,0.0247,0.0259,0.0314,0.0315,0.0315,0.0268,0.0265,0.0263,0,0,0,0,0,0.0063,0.0053,0.0064,0.0065,0.0086,0.0094,0.0099,0.0125,0.0138,0.0142,0.0168,0.019,0.0244,0.0238,0.0245,0.0251,0.0314,0.0314,0.0315,0.0269,0.0266,0.0263,0,0,0,0,0,0,0.0046,0.0057,0.0069,0.0063,0.0076,0.0101,0.0102,0.0121,0.0146,0.0148,0.0186,0.0194,0.0215,0.0237,0.0229,0.0272,0.0286,0.0288,0.0249,0.0246,0.0244,0.0234,0.0261,0,0,0,0,0,0.0041,0.004,0.0055,0.0051,0.0052,0.0078,0.0086,0.0101,0.0121,0.0133,0.0163,0.0195,0.0223,0.0236,0.0264,0.0278,0.0304,0.029,0.0288,0.0285,0.0284,0.0334,0.0335,0.0317,0.0317,0.0317,0,0,0.0037,0.0039,0.0042,0.0048,0.0059,0.006,0.0085,0.0087,0.0096,0.0135,0.0155,0.0186,0.0225,0.0246,0.0258,0.0264,0.03,0.0286,0.0284,0.0284,0.0334,0.0336,0.0338,0.0317,0.0317,0.0317,0,0,0.0016,0.0023,0.0014,0.002,0.0027,0.0042,0.004,0.0063,0.008,0.0095,0.0132,0.0162,0.0199,0.0233,0.0253,0.0253,0.0286,0.0265,0.0243,0.0291,0.0293,0.0295,0.0308,0.0312,0.0263,0.0262,0.0262,0,0.0009,-0.0,0.0014,0.0003,0.0006,0.0031,0.0023,0.0042,0.0071,0.0085,0.0094,0.0166,0.0195,0.0233,0.0232,0.0248,0.0268,0.0247,0.0287,0.029,0.0292,0.0306,0.0311,0.026,0.026,0.0261,0.0261,0,-0.0016,-0.0022,-0.0032,-0.0032,-0.0025,-0.0033,-0.0012,0.0003,0.0023,0.0048,0.0087,0.0131,0.0175,0.0192,0.0208,0.0246,0.025,0.0277,0.029,0.0291,0.0305,0.0311,0.0257,0.0258,0.0258,0.0259,0,0,-0.0043,-0.0047,-0.0052,-0.0057,-0.0047,-0.0049,-0.0037,-0.0018,-0.0009,0.003,0.0052,0.0104,0.0134,0.0159,0.0196,0.0233,0.0259,0.0254,0.0258,0.0259,0.034,0.0311,0.0314,0.0295,0.0296,0.0297,0.0333,0,-0.0069,-0.0098,-0.0084,-0.0103,-0.0118,-0.0088,-0.0079,-0.0055,-0.0027,-0.0001,0.0055,0.0086,0.012,0.0137,0.0182,0.0244,0.0276,0.0245,0.0346,0.0349,0.0317,0.0321,0.0301,0.0338,0.0339,0.034,0.0341,0,-0.0105,-0.0119,-0.0147,-0.0146,-0.0148,-0.0149,-0.0132,-0.0118,-0.0071,-0.0048,0.0001,0.0044,0.0102,0.013,0.0237,0.0215,0.0269,0.0316,0.032,0.0315,0.0331,0.0345,0.0351,0.0351,0.035,0.0349,0.0348,0,-0.0155,-0.0165,-0.019,-0.0192,-0.0184,-0.0185,-0.0174,-0.0137,-0.0131,-0.008,-0.007,0.0016,0.0046,0.0142,0.0229,0.0238,0.0339,0.0369,0.0393,0.0391,0.0427,0.0425,0.0446,0.0446,0.0446,0.0446,0.0446,0,-0.02,-0.0223,-0.0218,-0.0238,-0.0263,-0.0233,-0.0246,-0.022,-0.0187,-0.0181,-0.0102,-0.0081,0.0051,0.0124,0.0217,0.031,0.0334,0.0385,0.0404,0.0402,0.0397,0.0429,0.0427,0.0447,0.0447,0.0447,0.0446,0,-0.026,-0.0258,-0.0293,-0.0292,-0.0296,-0.0317,-0.0312,-0.0312,-0.0272,-0.0262,-0.0251,-0.016,-0.0059,0.0064,0.0209,0.0276,0.038,0.0407,0.0364,0.0381,0.0401,0.0396,0.0444,0.0443,0.0443,0.0442,0.0442,0,-0.0294,-0.0319,-0.0347,-0.0371,-0.0378,-0.0397,-0.0407,-0.0371,-0.0367,-0.031,-0.031,-0.0219,-0.0145,0.0031,0.0165,0.0335,0.0363,0.0402,0.0432,0.039,0.0404,0.04,0.0395,0.0441,0.0441,0.0441,0.0441,0,-0.0351,-0.0365,-0.0389,-0.044,-0.0467,-0.049,-0.0497,-0.0504,-0.0451,-0.0425,-0.0352,-0.0245,-0.0139,0.0017,0.0137,0.0265,0.0374,0.0398,0.04,0.0429,0.0388,0.0401,0.0397,0.0439,0.0439,0.0439,0.044,0,-0.0388,-0.042,-0.0448,-0.049,-0.0533,-0.0555,-0.0557,-0.053,-0.0515,-0.0436,-0.042,-0.0276,-0.0192,-0.0021,0.0095,0.0211,0.0254,0.0294,0.0303,0.0306,0.0261,0.0187,0.0191,0,0,0,0,0,-0.0408,-0.0438,-0.0487,-0.0527,-0.0571,-0.0584,-0.0597,-0.0583,-0.0543,-0.0498,-0.045,-0.0339,-0.0149,-0.0068,0.0046,0.0082,0.0262,0.0217,0.031,0.043,0.0432,0.04,0,0,0,0,0,0,-0.0419,-0.0466,-0.0487,-0.0541,-0.0572,-0.0607,-0.0614,-0.0589,-0.0552,-0.05,-0.0399,-0.0325,-0.0143,-0.0213,0.0044,0.0079,0.015,0.0312,0.0314,0.0428,0.043,0.0432,0.04,0,0,0,0,0]}]]